Location: Newark
(25.5428°S, 54.5819°W)
Time: 18:20:11
(UTC+00:00)

ISS - Visible Passes

Search period start: 16 July 2019 00:00
Search period end: 26 July 2019 00:00
Orbit: 409 x 418 km, 51.6° (Epoch: 17 July)

Date Brightness Start Highest point End Pass type
(mag) Time Alt. Az. Time Alt. Az. Time Alt. Az.
17 Jul 0.0 21:30:03 10° WNW 21:31:19 12° NW 21:32:35 10° NW visible
20 Jul -0.3 09:14:29 10° NNE 09:15:50 12° NE 09:17:11 10° E visible
22 Jul -2.7 09:10:26 10° NNW 09:13:36 45° NE 09:16:51 10° SE visible
23 Jul -1.3 08:23:39 19° NE 08:24:24 21° NE 08:26:58 10° ESE visible
24 Jul -3.3 09:11:04 37° WSW 09:11:32 40° SW 09:14:44 10° SSE visible
25 Jul -1.0 08:24:57 14° SE 08:24:57 14° SE 08:25:33 10° SE visible
